Theta_e
351 352 351 351 351 352 354 356 356 357 356 354 351 351 351 349 348 349 351 352 354 355 354 353 353 351 347 346 345 345 344 344 344 343 344 346 347 350 352 353 353 353
352 352 352 352 352 353 355 355 355 354 353 352 351 351 350 349 348 347 348 350 351 351 351 350 348 344 341 342 341 339 338 338 339 338 338 339 340 343 347 348 350 351
352 351 352 352 352 351 351 352 351 351 350 351 352 351 350 349 348 348 348 348 348 347 346 344 341 341 341 340 338 337 337 338 339 339 339 339 340 341 342 343 345 346
351 351 351 352 350 348 348 349 349 349 350 351 352 352 351 350 349 348 348 348 347 345 344 342 341 341 341 339 337 337 337 338 339 340 341 341 341 342 341 342 342 342
348 350 352 352 350 348 349 350 349 349 350 351 352 352 351 349 348 346 346 347 346 343 342 342 342 341 340 338 338 338 337 338 339 340 341 342 342 342 342 342 342 342
349 350 352 351 348 348 350 350 350 350 350 351 351 352 353 350 347 345 346 347 345 341 341 341 341 340 340 338 337 337 337 338 338 338 339 341 341 342 342 342 341 341
351 351 350 348 347 349 352 351 351 350 350 351 352 353 353 351 349 348 347 345 342 340 340 340 340 339 339 338 338 338 338 338 338 339 340 341 341 341 341 341 341 340
352 351 348 348 350 352 353 351 350 351 351 352 354 355 355 354 352 348 344 341 339 339 339 339 340 340 339 340 339 339 339 339 339 340 340 339 339 339 338 338 340 340
352 351 350 352 353 351 350 349 348 347 348 350 351 352 351 350 347 343 340 340 340 340 340 341 341 341 342 341 341 340 339 339 339 338 338 338 338 338 338 338 339 340
354 354 354 354 351 349 350 348 345 344 346 347 347 347 345 343 342 341 342 343 343 343 343 344 344 344 344 343 342 342 341 341 341 340 340 340 339 339 340 340 341 342
354 355 355 353 350 350 353 351 346 345 346 345 345 344 344 343 343 343 343 344 345 346 347 346 346 346 346 346 345 345 345 345 344 343 342 342 341 342 342 342 343 343
354 355 355 354 353 353 352 350 349 348 347 346 344 344 345 345 346 346 346 347 347 348 348 347 347 348 348 348 348 348 348 347 346 345 344 343 344 344 344 344 344 345
355 355 357 356 356 353 351 350 350 349 347 344 342 344 344 345 348 349 349 350 350 350 351 351 351 351 351 351 351 350 350 348 346 346 345 346 346 346 346 346 345 345
354 356 357 356 355 354 352 351 351 350 348 346 347 349 350 349 350 351 351 351 351 351 352 352 352 353 352 352 351 351 350 347 346 346 346 346 347 346 346 346 346 346
351 354 355 355 355 354 352 352 353 353 351 351 352 353 353 353 352 352 352 352 352 352 352 351 352 352 352 351 350 349 348 347 347 347 347 347 347 347 347 347 347 347
354 356 357 358 357 356 354 353 353 352 351 351 352 352 352 352 351 350 350 350 349 349 349 348 349 348 348 348 348 348 348 348 348 348 348 348 347 347 347 347 347 347
355 356 356 355 355 353 352 352 351 351 351 351 350 349 348 347 347 346 346 346 345 345 345 345 345 344 344 345 345 346 346 347 347 347 347 346 346 346 346 346 346 346
353 352 352 351 351 351 350 350 350 349 348 347 346 345 344 343 343 343 343 343 343 343 342 342 342 342 342 342 342 343 343 344 345 346 346 345 345 345 345 345 344 344
351 351 350 349 349 348 346 346 345 344 343 343 342 342 341 341 341 341 341 340 340 340 341 341 341 341 341 340 341 341 342 343 343 344 344 344 344 344 343 343 343 343
348 348 346 345 344 342 342 341 340 340 340 340 340 339 339 339 339 339 339 339 339 340 340 340 340 339 339 338 339 340 340 341 342 342 343 342 342 342 342 342 342 342
344 343 341 340 339 338 338 338 337 338 337 337 337 337 337 337 337 338 339 339 339 338 338 338 337 336 336 337 337 339 339 340 340 340 341 342 342 341 341 341 342 342
340 339 337 337 336 336 336 336 336 336 335 335 336 336 337 337 337 338 338 337 337 337 337 337 337 336 336 336 337 337 337 338 338 338 339 340 341 341 340 340 341 341
336 336 335 335 334 335 335 335 335 334 334 335 336 336 336 336 335 335 335 335 335 336 336 337 337 336 336 336 336 337 337 337 338 338 339 339 340 340 340 339 340 340
334 334 334 334 335 335 334 334 334 334 334 334 334 334 334 333 333 333 334 334 335 335 335 336 336 336 336 336 336 336 337 337 338 338 339 339 339 339 339 339 339 339
334 334 334 334 333 332 332 332 332 332 332 332 332 332 332 332 332 333 333 333 334 334 335 335 335 336 336 336 336 336 336 337 338 338 338 338 338 337 338 338 338 338
333 332 332 331 330 330 330 330 331 331 331 331 331 332 332 332 333 333 333 334 334 335 335 335 335 335 335 335 336 336 336 336 336 337 336 336 336 336 336 337 337 338
Wind_Speed
26 25 25 25 25 24 23 22 22 23 24 23 23 22 21 19 17 18 19 20 20 21 21 21 20 19 17 16 16 16 16 16 17 17 18 18 19 20 22 22 22 21
26 24 24 24 24 23 23 22 22 23 24 24 23 22 21 20 18 17 18 18 20 21 22 21 20 18 17 16 15 15 14 14 16 16 17 17 17 17 19 20 21 22
25 24 24 23 22 21 21 22 22 23 23 22 23 22 22 21 20 20 20 20 20 21 21 21 20 18 18 17 16 15 15 16 16 17 18 19 19 18 17 17 17 18
25 24 23 21 21 21 21 22 23 25 25 24 23 23 22 23 23 23 23 23 23 24 23 22 21 21 21 19 17 15 16 18 19 19 19 20 19 18 16 15 15 16
26 25 24 22 21 22 23 25 26 27 27 27 26 24 24 24 24 25 25 25 25 25 25 24 23 23 22 20 18 17 17 18 18 18 18 18 17 17 17 17 17 18
27 25 23 22 22 24 26 27 28 28 28 29 29 28 27 25 25 25 27 27 27 26 26 26 25 23 22 20 19 18 18 18 19 19 18 18 18 18 18 19 20 21
28 27 24 23 24 26 28 28 28 28 28 30 32 32 30 28 27 28 28 27 24 22 22 22 22 21 20 19 19 20 21 22 22 20 18 18 19 19 20 21 23 23
29 27 25 24 24 25 26 26 26 25 25 28 30 32 32 31 29 27 23 19 16 15 15 16 17 18 18 19 20 21 22 22 21 19 19 20 21 21 23 24 25 25
30 27 24 21 17 14 12 12 16 19 20 21 24 29 30 27 23 21 18 16 15 15 15 16 17 18 19 19 20 20 20 20 21 21 23 24 23 23 24 26 27 27
23 19 17 14 8 5 7 10 17 21 19 18 20 23 22 20 19 19 18 17 17 17 18 18 19 20 21 21 21 22 23 24 25 26 26 25 24 24 24 26 27 28
14 10 8 7 7 7 12 16 18 20 21 21 22 23 23 24 26 25 22 21 20 20 20 21 22 24 25 26 27 28 28 28 28 28 27 25 24 24 25 26 28 29
15 15 12 11 11 11 11 13 16 20 22 22 23 24 25 26 26 26 25 23 23 23 24 25 27 28 29 29 29 29 29 29 29 27 26 24 24 25 26 27 28 29
16 18 19 16 14 12 11 12 16 20 20 20 22 24 26 25 24 23 23 23 24 25 26 27 28 28 28 29 29 30 30 29 26 25 24 25 25 26 26 27 29 30
10 14 16 14 12 12 13 15 17 19 19 19 20 22 23 23 23 23 23 23 24 25 25 25 26 26 28 29 30 29 28 26 25 25 26 26 27 27 28 28 29 29
10 12 12 12 12 13 15 17 16 16 16 17 18 19 20 20 20 21 21 21 21 22 22 23 24 25 26 27 28 27 26 26 27 27 27 27 27 28 28 29 28 28
11 12 12 11 11 12 13 14 14 14 15 16 16 16 16 16 16 16 17 17 18 19 20 21 22 23 24 24 26 26 27 27 27 27 27 27 27 28 28 28 28 28
10 9 9 9 9 11 12 12 13 14 14 14 14 14 15 15 16 16 16 17 18 18 19 20 21 22 22 23 24 25 26 27 27 28 28 27 27 27 27 27 27 28
8 8 9 10 10 11 11 12 12 13 13 14 15 16 16 17 17 17 17 18 18 19 20 21 21 22 22 23 24 24 25 27 28 28 28 28 27 27 27 27 27 27
7 8 9 9 10 11 11 12 13 14 14 15 16 16 16 17 18 18 19 19 20 20 21 21 21 22 22 23 24 25 25 26 27 28 28 28 28 28 27 27 27 27
8 9 10 10 11 12 13 14 15 15 15 15 16 17 17 18 19 20 20 20 19 20 20 21 22 23 24 24 24 24 25 26 27 28 28 28 28 28 28 27 27 26
10 11 12 12 13 14 15 15 16 16 17 17 18 19 19 19 20 20 20 19 19 20 22 23 24 24 25 25 24 24 24 25 26 27 28 28 28 28 28 28 28 26
10 11 12 13 14 15 16 17 17 18 18 19 19 19 19 19 19 19 20 20 21 22 23 25 25 25 25 25 25 25 25 25 27 27 27 28 28 27 27 28 28 27
10 12 13 14 15 16 16 16 17 17 17 17 17 17 18 19 20 21 21 23 23 23 24 25 25 25 25 25 25 25 25 26 27 28 27 27 27 27 26 26 27 27
13 13 13 13 13 13 13 14 14 15 15 15 16 18 19 21 22 23 23 23 24 24 24 25 26 25 24 24 24 23 23 24 25 25 25 25 25 25 25 25 25 26
11 9 9 9 10 11 12 13 14 15 16 17 18 20 21 22 22 23 24 24 23 24 24 24 24 24 23 23 23 22 21 21 21 21 21 22 21 21 22 23 23 24
6 7 8 10 11 13 14 14 15 16 17 18 19 20 21 22 23 23 24 24 23 23 22 22 22 22 21 20 19 19 19 18 17 17 17 19 19 18 19 21 22 22
Wind_Direction
225 225 226 229 233 239 244 248 249 247 247 248 251 254 258 263 262 256 254 253 251 251 252 253 255 258 258 256 258 263 268 273 276 278 277 274 272 269 263 259 260 263
225 226 227 231 236 243 247 250 251 250 250 251 253 256 259 261 259 257 257 256 255 255 255 253 251 249 244 244 249 257 265 272 275 276 276 276 276 271 266 265 267 269
222 224 227 232 239 246 250 251 250 250 252 254 254 257 259 259 258 258 258 256 254 253 250 246 245 241 239 243 251 259 265 268 270 270 271 273 276 276 275 275 275 275
222 225 230 236 243 246 250 251 250 250 252 253 255 258 261 262 262 262 262 259 255 251 245 242 242 240 240 245 252 260 267 269 269 269 268 270 272 273 276 279 279 281
225 229 234 240 243 246 250 252 252 252 253 254 256 258 258 259 261 263 264 263 261 254 244 241 243 242 243 250 256 260 263 265 267 267 267 268 268 269 272 276 280 283
227 231 237 243 246 248 250 252 254 254 254 257 258 257 256 255 256 260 263 265 266 260 249 244 244 245 250 255 257 257 258 261 265 265 264 265 267 269 272 275 278 281
226 229 234 240 245 249 252 253 256 257 258 260 257 254 255 254 254 260 265 265 263 257 250 247 247 251 256 258 258 261 265 267 268 265 262 264 267 270 273 276 276 277
225 227 230 235 243 251 256 259 261 262 263 265 262 258 257 255 256 261 262 257 252 250 249 250 253 257 261 266 270 272 272 270 268 266 268 269 269 272 278 281 278 275
222 224 226 232 242 249 257 281 296 292 282 273 267 264 262 259 262 262 258 257 260 262 263 265 267 270 274 276 275 272 272 271 270 271 273 272 271 276 281 282 281 278
218 226 232 231 227 226 249 289 307 303 290 273 261 262 267 272 273 269 268 273 275 275 276 277 279 282 283 281 276 275 276 275 274 274 273 271 271 275 278 279 280 278
208 221 238 229 221 242 254 263 274 274 267 263 265 271 276 276 275 275 277 280 279 280 282 284 288 290 289 284 281 280 280 277 276 275 273 270 269 271 275 279 279 276
195 198 201 215 237 259 261 255 256 256 257 265 274 279 278 274 273 274 277 280 282 284 287 289 292 292 289 284 282 282 282 281 277 273 270 269 269 271 275 278 278 275
199 207 212 226 253 273 273 265 260 259 264 274 279 281 280 279 279 281 283 288 290 292 293 294 293 289 286 284 284 284 283 279 275 273 273 274 275 276 277 277 276 275
236 241 238 245 267 278 278 276 273 272 278 284 287 287 286 286 290 293 295 295 295 295 295 293 290 287 285 283 282 281 279 277 277 278 278 278 279 280 279 277 275 273
276 270 263 260 265 271 275 276 278 285 291 295 297 296 294 294 297 297 296 296 296 295 294 292 289 286 284 282 280 279 278 278 279 279 278 278 278 279 278 275 272 271
267 269 267 266 266 271 278 282 290 300 303 302 301 299 298 301 301 301 301 301 301 300 298 297 294 292 290 288 286 284 282 280 279 279 278 277 275 274 273 271 270 269
276 281 286 295 297 297 300 304 308 310 309 307 307 307 309 311 311 311 311 310 308 306 304 302 298 297 295 294 291 288 285 282 280 278 277 275 272 271 269 269 269 269
299 305 310 314 315 318 321 321 320 318 317 316 315 315 316 315 315 314 312 311 309 306 304 302 299 296 295 294 292 290 287 284 281 278 276 274 273 271 269 269 268 268
324 324 329 334 336 337 334 332 330 327 324 323 322 322 320 317 315 313 311 310 307 304 302 300 298 296 295 294 293 291 289 286 283 280 277 275 275 273 271 270 268 266
351 350 353 351 346 343 339 336 333 329 328 328 327 325 322 318 316 313 310 308 305 303 301 299 297 296 294 292 290 290 289 287 286 284 280 278 277 276 273 270 268 265
357 355 352 347 342 339 335 333 332 330 330 328 326 324 320 317 315 311 309 307 304 302 299 296 295 295 294 292 290 290 290 288 287 286 283 280 279 278 276 273 270 267
353 348 343 340 337 335 334 333 333 331 329 327 324 321 317 315 312 309 306 303 301 299 296 293 293 295 296 295 294 294 293 291 289 287 284 281 278 279 279 276 272 269
345 340 337 336 336 336 336 334 331 327 326 324 320 316 313 311 308 305 303 300 298 297 294 293 293 296 298 297 298 298 297 295 292 289 284 279 277 279 280 278 274 272
335 334 334 335 335 335 331 325 321 317 315 313 311 308 306 307 306 304 302 301 299 297 296 294 294 296 298 298 298 300 299 298 296 293 287 281 279 280 280 278 276 274
335 336 336 334 330 324 318 314 310 309 309 308 307 306 306 307 307 305 303 303 301 299 297 296 294 297 300 301 302 303 299 296 297 295 289 284 282 282 281 278 275 273
350 346 337 331 325 321 318 315 312 311 311 310 309 309 309 309 308 305 303 302 302 301 300 299 299 301 305 307 308 305 298 295 297 298 294 290 287 283 278 275 271 268